Location: *
(51.1248°S, 108.4023°W)
Time: 04:07:09
(UTC+00:00)

Cosmos 2278 Rocket - Pass Details

Date: 15 June 2021
Orbit: 840 x 847 km, 71.0° (Epoch: 31 July)

Event Time Altitude Azimuth Distance (km) Brightness Sun altitude
Exits shadow 12:55:25 13° 196° (SSW) 2,294 4.2 -20.8°
Drops below altitude 10° 12:57:38 10° 173° (S) 2,507 4.6 -20.5°
Sets 13:01:40 0° 145° (SE) 3,444 5.7 -19.9°
